Orangeburg, SC

12:33 PM EDT on May 26, 2017 (GMT -0400)
Orangeburg Municipal

Weather History for KOGB - March, 2013

Change the Weather History Date:

Thursday, March 14, 2013

  Actual Average Record
Temperature  
Mean Temperature 45 °F 56 °F  
Max Temperature 57 °F 68 °F 87 °F (1955)
Min Temperature 33 °F 44 °F 24 °F (1993)
Degree Days  
Heating Degree Days 20 9  
Month to date heating degree days 226 153  
Since 1 July heating degree days 1859 2085  
Cooling Degree Days 0 1  
Month to date cooling degree days 0 6  
Year to date cooling degree days 20 9  
Moisture  
Dew Point 20 °F    
Average Humidity 40    
Maximum Humidity 70    
Minimum Humidity 19    
Precipitation  
Precipitation 0.00 in 0.13 in 1.25 in (1986)
Month to date precipitation 0.53 1.85  
Year to date precipitation 8.69 9.42  
Sea Level Pressure  
Sea Level Pressure 30.23 in    
Wind  
Wind Speed 5 mph (NNW)    
Max Wind Speed 13 mph    
Max Gust Speed 17 mph    
Visibility 10 miles    
Events      
T = Trace of Precipitation, MM = Missing Value Source: NWS Daily Summary

Daily Weather History Graph

Daily Weather History Graph

Search for Another Location

Airport or City:

Trip Planner

Search our weather history database for the weather conditions in past years. The results will help you decide how hot, cold, wet, or windy it might be!

Date:

Astronomy

Mar. 14, 2013 Rise Set
Actual Time 7:34 AM EDT 7:30 PM EDT
Civil Twilight 7:10 AM EDT 7:55 PM EDT
Nautical Twilight 6:41 AM EDT 8:24 PM EDT
Astronomical Twilight 6:12 AM EDT 8:53 PM EDT
Moon 8:58 AM EDT (3/14) 10:33 PM EDT (3/14)
Length of Visible Light 12h 45m
Length of Day
11h 55m
Waxing Crescent, 9% of the Moon is Illuminated
Mar 14
Waxing Crescent
Mar 19
First Quarter
Mar 27
Full
Apr 3
Last Quarter
Apr 10
New

Hourly Weather History & Observations

Time (EDT) Temp. Windchill Dew Point Humidity Pressure Visibility Wind Dir Wind Speed Gust Speed Precip Events Conditions
12:53 AM 45.0 °F 41.2 °F 19.9 °F 37% 30.17 in 10.0 mi NNW 6.9 mph - N/A   Clear
1:53 AM 43.0 °F 38.2 °F 19.9 °F 40% 30.18 in 10.0 mi NNW 8.1 mph - N/A   Clear
2:53 AM 42.1 °F 38.4 °F 19.9 °F 41% 30.19 in 10.0 mi NNW 5.8 mph - N/A   Clear
3:53 AM 39.9 °F 36.7 °F 21.0 °F 47% 30.21 in 10.0 mi NNW 4.6 mph - N/A   Clear
4:53 AM 37.9 °F 33.5 °F 21.0 °F 51% 30.21 in 10.0 mi NNW 5.8 mph - N/A   Clear
5:53 AM 37.9 °F 33.5 °F 19.9 °F 48% 30.22 in 10.0 mi NNW 5.8 mph - N/A   Clear
6:53 AM 36.0 °F 31.1 °F 21.0 °F 55% 30.26 in 10.0 mi North 5.8 mph - N/A   Clear
7:53 AM 35.1 °F 31.0 °F 21.0 °F 57% 30.29 in 10.0 mi North 4.6 mph - N/A   Clear
8:53 AM 37.9 °F 32.7 °F 21.0 °F 51% 30.32 in 10.0 mi North 6.9 mph - N/A   Clear
9:53 AM 41.0 °F 37.1 °F 21.0 °F 45% 30.34 in 10.0 mi North 5.8 mph - N/A   Clear
10:53 AM 43.0 °F 39.5 °F 17.1 °F 35% 30.32 in 10.0 mi North 5.8 mph - N/A   Clear
11:53 AM 46.0 °F 42.5 °F 18.0 °F 33% 30.31 in 10.0 mi North 6.9 mph - N/A   Clear
12:53 PM 48.9 °F - 18.0 °F 29% 30.29 in 10.0 mi NNE 10.4 mph - N/A   Clear
1:53 PM 51.1 °F - 18.0 °F 27% 30.27 in 10.0 mi Variable 4.6 mph - N/A   Clear
2:53 PM 53.1 °F - 17.1 °F 24% 30.24 in 10.0 mi NNW 5.8 mph - N/A   Clear
3:53 PM 55.0 °F - 15.1 °F 21% 30.21 in 10.0 mi West 5.8 mph - N/A   Clear
4:53 PM 55.9 °F - 14.0 °F 19% 30.19 in 10.0 mi Variable 4.6 mph - N/A   Clear
5:53 PM 57.0 °F - 16.0 °F 20% 30.18 in 10.0 mi WNW 11.5 mph 16.1 mph N/A   Clear
6:53 PM 55.9 °F - 17.1 °F 22% 30.19 in 10.0 mi NW 5.8 mph - N/A   Clear
7:53 PM 52.0 °F - 21.0 °F 30% 30.20 in 10.0 mi Calm Calm - N/A   Clear
8:53 PM 50.0 °F - 23.0 °F 35% 30.20 in 7.0 mi Calm Calm - N/A   Clear
9:53 PM 42.1 °F - 28.0 °F 58% 30.20 in 8.0 mi Calm Calm - N/A   Clear
10:53 PM 39.9 °F - 28.9 °F 65% 30.21 in 8.0 mi Calm Calm - N/A   Clear
11:53 PM 37.9 °F - 28.0 °F 68% 30.21 in 7.0 mi Calm Calm - N/A   Clear